• In Hungary
  • List of Countries
  • For 7 days
  • Water Temperature
  • Satellite Maps
  • Weather Map
  • News
  • Weather Widgets
  • user-avatar
    Login

    Hourly Weather Volodino

    Today, 23 May, Wednesday

    Time Temperature Precipitation Wind Pressure Humidity
    00:00 +12°C° 0 mm 2 mps 753 mmHg 96%
    01:00 +11°C° 0 mm 1 mps 753 mmHg 96%
    02:00 +11°C° 0 mm 1 mps 753 mmHg 97%
    03:00 +12°C° 0 mm 1 mps 752 mmHg 96%
    04:00 +12°C° 0 mm 1 mps 752 mmHg 95%
    05:00 +13°C° 0 mm 1 mps 752 mmHg 94%
    06:00 +14°C° 0 mm 2 mps 752 mmHg 87%
    07:00 +16°C° 0 mm 2 mps 752 mmHg 79%
    08:00 +18°C° 0 mm 2 mps 753 mmHg 70%
    09:00 +19°C° 0 mm 3 mps 753 mmHg 65%
    10:00 +20°C° 0 mm 3 mps 753 mmHg 60%
    11:00 +21°C° 0 mm 3 mps 752 mmHg 55%
    12:00 +21°C° 0 mm 3 mps 752 mmHg 53%
    13:00 +22°C° 0 mm 3 mps 752 mmHg 52%
    14:00 +22°C° 0 mm 3 mps 752 mmHg 50%
    15:00 +22°C° 0 mm 3 mps 752 mmHg 52%
    16:00 +21°C° 0 mm 2 mps 751 mmHg 55%
    17:00 +21°C° 0 mm 2 mps 751 mmHg 57%
    18:00 +19°C° 0 mm 2 mps 751 mmHg 64%
    19:00 +18°C° 0 mm 1 mps 751 mmHg 71%
    20:00 +15°C° 0 mm 1 mps 751 mmHg 78%
    21:00 +14°C° 0 mm 1 mps 752 mmHg 80%
    22:00 +14°C° 0 mm 1 mps 752 mmHg 82%
    23:00 +13°C° 0 mm 1 mps 752 mmHg 85%

    Tomorrow, 24 May, Thursday

    Time Temperature Precipitation Wind Pressure Humidity
    00:00 +13°C° 0 mm 1 mps 752 mmHg 86%
    01:00 +12°C° 0 mm 1 mps 752 mmHg 87%
    02:00 +12°C° 0 mm 1 mps 752 mmHg 88%
    03:00 +13°C° 0 mm 1 mps 752 mmHg 86%
    04:00 +13°C° 0 mm 1 mps 752 mmHg 84%
    05:00 +14°C° 0 mm 1 mps 751 mmHg 83%
    06:00 +16°C° 0 mm 1 mps 752 mmHg 76%
    07:00 +18°C° 0 mm 1 mps 752 mmHg 69%
    08:00 +20°C° 0 mm 1 mps 752 mmHg 62%
    09:00 +20°C° 0 mm 2 mps 752 mmHg 57%
    10:00 +21°C° 0 mm 2 mps 752 mmHg 53%
    11:00 +23°C° 0 mm 2 mps 752 mmHg 48%
    12:00 +24°C° 0 mm 2 mps 752 mmHg 48%
    13:00 +24°C° 0 mm 3 mps 751 mmHg 48%
    14:00 +24°C° 0 mm 3 mps 751 mmHg 48%
    15:00 +22°C° 0.1 mm 3 mps 751 mmHg 53%
    16:00 +22°C° 0.1 mm 3 mps 751 mmHg 58%
    17:00 +21°C° 0.1 mm 3 mps 751 mmHg 63%
    18:00 +19°C° 0.1 mm 3 mps 752 mmHg 69%
    19:00 +17°C° 0.1 mm 3 mps 752 mmHg 75%
    20:00 +16°C° 0.1 mm 3 mps 752 mmHg 82%
    21:00 +14°C° 0 mm 3 mps 753 mmHg 79%
    22:00 +12°C° 0 mm 3 mps 753 mmHg 76%
    23:00 +11°C° 0 mm 3 mps 754 mmHg 73%

    Day after tomorrow, 25 May, Friday

    Time Temperature Precipitation Wind Pressure Humidity
    00:00 +10°C° 0 mm 3 mps 754 mmHg 71%
    01:00 +9°C° 0 mm 3 mps 755 mmHg 69%
    02:00 +8°C° 0 mm 3 mps 755 mmHg 67%
    03:00 +9°C° 0 mm 3 mps 755 mmHg 67%
    04:00 +9°C° 0 mm 3 mps 756 mmHg 66%
    05:00 +9°C° 0 mm 3 mps 756 mmHg 66%
    06:00 +11°C° 0 mm 3 mps 757 mmHg 59%
    07:00 +12°C° 0 mm 4 mps 757 mmHg 52%
    08:00 +14°C° 0 mm 4 mps 757 mmHg 45%
    09:00 +15°C° 0 mm 4 mps 758 mmHg 42%
    10:00 +17°C° 0 mm 4 mps 758 mmHg 40%
    11:00 +18°C° 0 mm 4 mps 758 mmHg 37%
    12:00 +18°C° 0 mm 4 mps 758 mmHg 37%
    13:00 +19°C° 0 mm 4 mps 758 mmHg 37%
    14:00 +19°C° 0 mm 4 mps 758 mmHg 37%
    15:00 +19°C° 0 mm 3 mps 758 mmHg 39%
    16:00 +18°C° 0 mm 3 mps 758 mmHg 42%
    17:00 +18°C° 0 mm 3 mps 758 mmHg 44%
    18:00 +16°C° 0 mm 2 mps 758 mmHg 50%
    19:00 +14°C° 0 mm 2 mps 758 mmHg 57%
    20:00 +12°C° 0 mm 1 mps 759 mmHg 63%
    21:00 +12°C° 0 mm 1 mps 759 mmHg 64%
    22:00 +11°C° 0 mm 1 mps 759 mmHg 64%
    23:00 +10°C° 0 mm 1 mps 759 mmHg 64%

    26 May, Saturday

    Time Temperature Precipitation Wind Pressure Humidity
    00:00 +10°C° 0 mm 1 mps 760 mmHg 65%
    01:00 +10°C° 0 mm 1 mps 760 mmHg 65%
    02:00 +8°C° 0 mm 2 mps 760 mmHg 66%
    03:00 +9°C° 0 mm 2 mps 761 mmHg 66%
    04:00 +9°C° 0 mm 2 mps 761 mmHg 66%
    05:00 +10°C° 0 mm 2 mps 761 mmHg 67%
    06:00 +13°C° 0 mm 2 mps 761 mmHg 61%
    07:00 +15°C° 0 mm 2 mps 761 mmHg 56%
    08:00 +18°C° 0 mm 3 mps 761 mmHg 51%
    09:00 +19°C° 0 mm 3 mps 761 mmHg 47%
    10:00 +20°C° 0 mm 3 mps 761 mmHg 43%
    11:00 +22°C° 0 mm 3 mps 761 mmHg 39%
    12:00 +22°C° 0 mm 3 mps 761 mmHg 39%
    13:00 +24°C° 0 mm 3 mps 761 mmHg 39%
    14:00 +24°C° 0 mm 3 mps 760 mmHg 38%
    15:00 +24°C° 0 mm 3 mps 760 mmHg 41%
    16:00 +24°C° 0 mm 2 mps 760 mmHg 44%
    17:00 +24°C° 0 mm 2 mps 759 mmHg 46%
    18:00 +20°C° 0 mm 2 mps 759 mmHg 54%
    19:00 +18°C° 0 mm 2 mps 759 mmHg 61%
    20:00 +16°C° 0 mm 2 mps 759 mmHg 68%
    21:00 +15°C° 0 mm 2 mps 759 mmHg 70%
    22:00 +14°C° 0 mm 2 mps 759 mmHg 72%
    23:00 +14°C° 0 mm 2 mps 759 mmHg 74%

    27 May, Sunday

    Time Temperature Precipitation Wind Pressure Humidity
    00:00 +13°C° 0 mm 2 mps 759 mmHg 75%
    01:00 +13°C° 0 mm 2 mps 759 mmHg 77%
    02:00 +12°C° 0 mm 2 mps 759 mmHg 78%
    03:00 +13°C° 0 mm 2 mps 759 mmHg 76%
    04:00 +12°C° 0 mm 3 mps 759 mmHg 74%
    05:00 +13°C° 0 mm 3 mps 759 mmHg 73%
    06:00 +16°C° 0 mm 3 mps 759 mmHg 67%
    07:00 +18°C° 0 mm 3 mps 758 mmHg 62%
    08:00 +20°C° 0 mm 4 mps 758 mmHg 57%
    09:00 +21°C° 0 mm 4 mps 758 mmHg 53%
    10:00 +22°C° 0 mm 4 mps 758 mmHg 49%
    11:00 +23°C° 0 mm 4 mps 757 mmHg 45%
    12:00 +25°C° 0 mm 5 mps 757 mmHg 44%
    13:00 +25°C° 0 mm 5 mps 756 mmHg 42%
    14:00 +25°C° 0 mm 5 mps 756 mmHg 40%
    15:00 +25°C° 0 mm 5 mps 755 mmHg 43%
    16:00 +25°C° 0 mm 4 mps 755 mmHg 46%
    17:00 +23°C° 0 mm 4 mps 754 mmHg 48%
    18:00 +21°C° 0 mm 3 mps 754 mmHg 55%
    19:00 +20°C° 0 mm 3 mps 754 mmHg 61%
    20:00 +18°C° 0 mm 3 mps 754 mmHg 67%
    21:00 +17°C° 0 mm 3 mps 754 mmHg 71%
    22:00 +16°C° 0 mm 3 mps 754 mmHg 74%
    23:00 +16°C° 0 mm 3 mps 754 mmHg 77%

    28 May, Monday

    Time Temperature Precipitation Wind Pressure Humidity
    00:00 +14°C° 0 mm 3 mps 754 mmHg 81%
    01:00 +13°C° 0 mm 3 mps 754 mmHg 85%
    02:00 +14°C° 0 mm 2 mps 754 mmHg 88%
    03:00 +14°C° 0 mm 2 mps 754 mmHg 87%
    04:00 +14°C° 0 mm 2 mps 754 mmHg 85%
    05:00 +14°C° 0 mm 2 mps 754 mmHg 83%
    06:00 +16°C° 0 mm 2 mps 754 mmHg 75%
    07:00 +17°C° 0 mm 2 mps 754 mmHg 66%
    08:00 +19°C° 0 mm 2 mps 754 mmHg 58%
    09:00 +20°C° 0 mm 3 mps 754 mmHg 52%
    10:00 +21°C° 0 mm 3 mps 753 mmHg 46%
    11:00 +22°C° 0 mm 3 mps 753 mmHg 41%
    12:00 +22°C° 0 mm 4 mps 753 mmHg 41%
    13:00 +22°C° 0 mm 4 mps 752 mmHg 40%
    14:00 +23°C° 0 mm 4 mps 752 mmHg 40%
    15:00 +22°C° 0 mm 4 mps 752 mmHg 44%
    16:00 +21°C° 0 mm 4 mps 752 mmHg 47%
    17:00 +21°C° 0 mm 3 mps 752 mmHg 50%
    18:00 +19°C° 0 mm 3 mps 752 mmHg 55%
    19:00 +17°C° 0 mm 3 mps 752 mmHg 60%
    20:00 +15°C° 0 mm 2 mps 753 mmHg 65%
    21:00 +14°C° 0 mm 2 mps 753 mmHg 68%
    22:00 +13°C° 0 mm 2 mps 753 mmHg 71%
    23:00 +12°C° 0 mm 2 mps 754 mmHg 74%
    Show more